St. James, MN

2:26 PM CDT on May 23, 2018 (GMT -0500)
Saint James Municipal

Weather History for KJYG - November, 2012

Change the Weather History Date:

Wednesday, November 7, 2012

  Actual Average Record
Temperature  
Mean Temperature 40 °F -  
Max Temperature 46 °F 46 °F 75 °F (2001)
Min Temperature 33 °F 27 °F -4 °F (1991)
Degree Days  
Heating Degree Days 24    
Moisture  
Dew Point 33 °F    
Average Humidity 80    
Maximum Humidity 93    
Minimum Humidity 53    
Precipitation  
Precipitation 0.00 in - - ()
Sea Level Pressure  
Sea Level Pressure 30.08 in    
Wind  
Wind Speed 4 mph (NNW)    
Max Wind Speed 12 mph    
Max Gust Speed -    
Visibility 10 miles    
Events      
Averages and records for this station are not official NWS values.
T = Trace of Precipitation, MM = Missing Value Source: NWS Daily Summary

Daily Weather History Graph

Daily Weather History Graph

Search for Another Location

Airport or City:

Astronomy

Nov. 07, 2012 Rise Set
Actual Time 7:03 AM CST 5:00 PM CST
Civil Twilight 6:32 AM CST 5:30 PM CST
Nautical Twilight 5:58 AM CST 6:05 PM CST
Astronomical Twilight 5:24 AM CST 6:38 PM CST
Moon No Moon Rise 1:22 PM CST (11/7)
Length of Visible Light 10h 57m
Length of Day
9h 56m
Last Quarter, 43% of the Moon is Illuminated
Nov 7
Last Quarter
Nov 13
New
Nov 20
First Quarter
Nov 28
Full
Dec 6
Last Quarter

Hourly Weather History & Observations

Time (CST) Temp. Windchill Dew Point Humidity Pressure Visibility Wind Dir Wind Speed Gust Speed Precip Events Conditions
12:15 AM 39.2 °F 32.0 °F 35.6 °F 87% 30.02 in 10.0 mi NW 11.5 mph - N/A   Overcast
12:35 AM 39.2 °F 32.5 °F 35.6 °F 87% 30.02 in 10.0 mi NW 10.4 mph - N/A   Overcast
12:54 AM 39.2 °F 32.0 °F 35.6 °F 87% 30.03 in 10.0 mi NW 11.5 mph - N/A   Overcast
1:15 AM 39.2 °F 33.6 °F 35.6 °F 87% 30.03 in 10.0 mi NW 8.1 mph - N/A   Overcast
1:35 AM 39.2 °F 32.5 °F 35.6 °F 87% 30.03 in 10.0 mi NW 10.4 mph - N/A   Overcast
1:55 AM 39.2 °F 32.5 °F 35.6 °F 87% 30.04 in 10.0 mi NW 10.4 mph - N/A   Overcast
2:15 AM 39.2 °F 33.0 °F 35.6 °F 87% 30.05 in 10.0 mi NNW 9.2 mph - N/A   Overcast
2:55 AM 39.2 °F - 35.6 °F 87% 30.06 in 10.0 mi Calm Calm - N/A   Overcast
3:15 AM 39.2 °F 35.0 °F 35.6 °F 87% 30.07 in 10.0 mi NNW 5.8 mph - N/A   Drizzle
3:35 AM 37.4 °F 30.8 °F 35.6 °F 93% 30.07 in 10.0 mi NNW 9.2 mph - N/A   Light Drizzle
3:55 AM 37.4 °F 30.8 °F 33.8 °F 87% 30.07 in 10.0 mi NNW 9.2 mph - N/A   Drizzle
4:15 AM 37.4 °F - 35.6 °F 93% 30.07 in 10.0 mi Calm Calm - N/A   Light Drizzle
4:35 AM 37.4 °F - 35.6 °F 93% 30.08 in 10.0 mi Calm Calm - N/A   Overcast
4:55 AM 37.4 °F - 35.6 °F 93% 30.08 in 10.0 mi Calm Calm - N/A   Overcast
5:15 AM 37.4 °F - 35.6 °F 93% 30.09 in 10.0 mi Calm Calm - N/A   Overcast
5:35 AM 37.4 °F - 35.6 °F 93% 30.09 in 10.0 mi Calm Calm - N/A   Overcast
5:54 AM 37.4 °F - 33.8 °F 87% 30.09 in 10.0 mi Calm Calm - N/A   Overcast
6:15 AM 35.6 °F - 33.8 °F 93% 30.10 in 10.0 mi Calm Calm - N/A   Overcast
6:35 AM 35.6 °F - 33.8 °F 93% 30.10 in 10.0 mi Calm Calm - N/A   Overcast
6:54 AM 35.6 °F - 33.8 °F 93% 30.10 in 10.0 mi Calm Calm - N/A   Overcast
7:15 AM 35.6 °F - 33.8 °F 93% 30.11 in 10.0 mi Calm Calm - N/A   Overcast
7:35 AM 35.6 °F 30.7 °F 33.8 °F 93% 30.12 in 10.0 mi West 5.8 mph - N/A   Overcast
7:55 AM 35.6 °F - 32.0 °F 87% 30.13 in 10.0 mi Calm Calm - N/A   Overcast
8:15 AM 35.6 °F - 30.2 °F 81% 30.13 in 10.0 mi Calm Calm - N/A   Scattered Clouds
8:35 AM 35.6 °F - 32.0 °F 87% 30.13 in 10.0 mi Calm Calm - N/A   Scattered Clouds
8:55 AM 35.6 °F - 32.0 °F 87% 30.13 in 10.0 mi Calm Calm - N/A   Clear
9:15 AM 37.4 °F - 33.8 °F 87% 30.13 in 10.0 mi Calm Calm - N/A   Clear
9:34 AM 39.2 °F - 33.8 °F 81% 30.13 in 10.0 mi Calm Calm - N/A   Clear
9:55 AM 39.2 °F - 35.6 °F 87% 30.14 in 10.0 mi Calm Calm - N/A   Clear
10:14 AM 41.0 °F - 35.6 °F 81% 30.13 in 10.0 mi Calm Calm - N/A   Clear
10:35 AM 41.0 °F - 35.6 °F 81% 30.14 in 10.0 mi Calm Calm - N/A   Scattered Clouds
10:55 AM 42.8 °F - 35.6 °F 76% 30.14 in 10.0 mi Calm Calm - N/A   Mostly Cloudy
11:15 AM 42.8 °F - 35.6 °F 76% 30.14 in 10.0 mi Calm Calm - N/A   Mostly Cloudy
11:35 AM 42.8 °F - 35.6 °F 76% 30.13 in 10.0 mi Calm Calm - N/A   Mostly Cloudy
11:54 AM 44.6 °F - 33.8 °F 66% 30.12 in 10.0 mi Calm Calm - N/A   Overcast
12:15 PM 44.6 °F - 33.8 °F 66% 30.11 in 10.0 mi Calm Calm - N/A   Mostly Cloudy
12:35 PM 46.4 °F - 33.8 °F 62% 30.11 in 10.0 mi Calm Calm - N/A   Scattered Clouds
12:55 PM 46.4 °F - 30.2 °F 53% 30.10 in 10.0 mi Calm Calm - N/A   Mostly Cloudy
1:15 PM 46.4 °F - 30.2 °F 53% 30.09 in 10.0 mi Calm Calm - N/A   Overcast
1:35 PM 46.4 °F - 30.2 °F 53% 30.09 in 10.0 mi Calm Calm - N/A   Scattered Clouds
1:55 PM 44.6 °F - 30.2 °F 57% 30.09 in 10.0 mi Calm Calm - N/A   Clear
2:15 PM 44.6 °F - 30.2 °F 57% 30.09 in 10.0 mi Calm Calm - N/A   Scattered Clouds
2:35 PM 44.6 °F - 30.2 °F 57% 30.08 in 10.0 mi Calm Calm - N/A   Scattered Clouds
2:55 PM 46.4 °F - 30.2 °F 53% 30.08 in 10.0 mi Calm Calm - N/A   Mostly Cloudy
3:15 PM 46.4 °F - 32.0 °F 57% 30.07 in 10.0 mi Calm Calm - N/A   Scattered Clouds
3:40 PM 44.6 °F - 32.0 °F 61% 30.07 in 10.0 mi Calm Calm - N/A   Clear
3:54 PM 44.6 °F - 33.8 °F 66% 30.07 in 10.0 mi Calm Calm - N/A   Clear
4:15 PM 44.6 °F - 33.8 °F 66% 30.07 in 10.0 mi Calm Calm - N/A   Clear
4:35 PM 42.8 °F - 33.8 °F 70% 30.06 in 10.0 mi Calm Calm - N/A   Clear
4:54 PM 42.8 °F - 33.8 °F 70% 30.07 in 10.0 mi Calm Calm - N/A   Clear
5:15 PM 39.2 °F - 33.8 °F 81% 30.06 in 10.0 mi Calm Calm - N/A   Clear
5:35 PM 39.2 °F - 33.8 °F 81% 30.06 in 10.0 mi Calm Calm - N/A   Clear
5:55 PM 39.2 °F - 33.8 °F 81% 30.06 in 10.0 mi Calm Calm - N/A   Clear
6:14 PM 39.2 °F - 33.8 °F 81% 30.06 in 10.0 mi Calm Calm - N/A   Clear
6:35 PM 37.4 °F - 32.0 °F 81% 30.06 in 10.0 mi Calm Calm - N/A   Clear
6:55 PM 37.4 °F - 32.0 °F 81% 30.06 in 10.0 mi Calm Calm - N/A   Clear
7:14 PM 37.4 °F - 32.0 °F 81% 30.06 in 10.0 mi Calm Calm - N/A   Clear
7:35 PM 37.4 °F 34.9 °F 32.0 °F 81% 30.05 in 10.0 mi SE 3.5 mph - N/A   Clear
7:55 PM 37.4 °F 31.4 °F 32.0 °F 81% 30.05 in 10.0 mi SE 8.1 mph - N/A   Clear
8:14 PM 35.6 °F - 32.0 °F 87% 30.05 in 10.0 mi Calm Calm - N/A   Clear
8:35 PM 35.6 °F - 30.2 °F 81% 30.04 in 10.0 mi Calm Calm - N/A   Clear
8:55 PM 35.6 °F - 30.2 °F 81% 30.04 in 10.0 mi Calm Calm - N/A   Clear
9:14 PM 35.6 °F - 30.2 °F 81% 30.05 in 10.0 mi Calm Calm - N/A   Clear
9:35 PM 35.6 °F 28.0 °F 30.2 °F 81% 30.04 in 10.0 mi SE 10.4 mph - N/A   Clear
9:55 PM 35.6 °F 28.0 °F 30.2 °F 81% 30.04 in 10.0 mi SE 10.4 mph - N/A   Clear
10:15 PM 35.6 °F 30.7 °F 30.2 °F 81% 30.05 in 10.0 mi SE 5.8 mph - N/A   Clear
10:35 PM 35.6 °F 28.0 °F 30.2 °F 81% 30.05 in 10.0 mi SSE 10.4 mph - N/A   Clear
10:55 PM 35.6 °F 28.6 °F 30.2 °F 81% 30.05 in 10.0 mi SE 9.2 mph - N/A   Clear
11:15 PM 35.6 °F 28.0 °F 30.2 °F 81% 30.04 in 10.0 mi SE 10.4 mph - N/A   Clear
11:35 PM 35.6 °F 27.5 °F 30.2 °F 81% 30.04 in 10.0 mi SE 11.5 mph - N/A   Clear
11:55 PM 33.8 °F 27.7 °F 30.2 °F 87% 30.03 in 10.0 mi SE 6.9 mph - N/A   Clear